Regional Weather Roundup
Issued by NWS

Home | Current Version | Previous Version | Text Only | Print | Product List | Glossary Off
Versions: 1 2 3 4 5 6 7 8 9 10 11 12 13 14 15 16 17 18 19 20 21 22 23 24 25 26 27 28 29 30 31 32 33 34 35 36 37 38 39 40 41 42 43 44 45 46 47 48 49 50

000
ASUS45 KABQ 231601
RWRNM
NEW MEXICO REGIONAL WEATHER ROUNDUP
NATIONAL WEATHER SERVICE ALBUQUERQUE NM
1000 AM MDT TUE AUG 23 2016

NOTE: "FAIR" MEANS FEW OR NO CLOUDS BELOW 12,000 FEET AGL WITH NO
       SIGNIFICANT WEATHER OR OBSTRUCTIONS TO VISION.

      THIS PRODUCT IS RELEASED AS TWO VERSIONS.  ONE VERSION NEAR
      THE TOP OF THE HOUR CONTAINING PRELIMINARY DATA FROM ALBUQUERQUE
      AND OTHER STATIONS.  A FINAL VERSION WITH ADDITIONAL DATA IS
      ISSUED ABOUT 10 MINUTES AFTER THE HOUR.

NMZ501-503-504-510>518-231700-
NORTHWEST PLATEAU/NORTHCENTRAL MOUNTAINS

CITY           SKY/WX    TMP DP  RH WIND       PRES   REMARKS
FARMINGTON     FAIR      63  50  62 E8        30.21R
LOS ALAMOS     FAIR      60  50  70 CALM      30.34R
SANTA FE       FAIR      66  51  58 S3        30.29R
TAOS           FAIR      61  45  55 SW3       30.33R
ANGEL FIRE     FAIR      58  44  61 W15G24    30.38R

$$
NMZ402-403-502-505>509-231700-
WESTCENTRAL MOUNTAINS/SOUTHWEST MOUNTAINS

CITY           SKY/WX    TMP DP  RH WIND       PRES   REMARKS
GALLUP         FAIR      62  50  64 SW18G25   30.32R
GRANTS         FAIR      67  47  48 SE6       30.32R
SILVER CITY    FAIR      75  49  39 W5        30.26S

$$
NMZ407-409-411-412-231700-
SOUTHERN DESERTS

CITY           SKY/WX    TMP DP  RH WIND       PRES   REMARKS
LORDSBURG      FAIR      79  50  36 NW10G16   30.19S
DEMING         FAIR      74  61  63 CALM      30.19R
LAS CRUCES     CLOUDY    75  61  62 SW5       30.21R
ALAMOGORDO     FAIR      81  57  44 S13       30.18S
T OR C         FAIR      72  58  61 CALM      30.21R

$$
NMZ519>523-231700-
CENTRAL VALLEYS/CENTRAL HIGHLANDS

CITY           SKY/WX    TMP DP  RH WIND       PRES   REMARKS
ALBUQUERQUE    FAIR      68  55  63 CALM      30.25R
DOUBLE EAGLE   PTSUNNY   64  54  68 VRB5      30.27S
MORIARTY ARPT  FAIR      67  51  56 CALM      30.29R
CLINES CORNERS FAIR      67  49  52 W16       30.32R
BELEN          FAIR      69  54  58 S5        30.25R
SOCORRO        FAIR      72  53  50 CALM      30.22R

$$
NMZ524>526-539-540-231700-
SOUTHCENTRAL MOUNTAINS

CITY           SKY/WX    TMP DP  RH WIND       PRES   REMARKS
RUIDOSO        NOT AVBL

$$
NMZ527>531-231700-
NORTHEAST HIGHLANDS/NORTHEAST PLAINS

CITY           SKY/WX    TMP DP  RH WIND       PRES   REMARKS
LAS VEGAS      FAIR      71  46  40 SW14      30.27R
RATON          FAIR      69  45  41 VRB3      30.17S
CLAYTON        FAIR      80  49  33 W17G28    30.08R

$$
NMZ532>537-231700-
EASTCENTRAL PLAINS

CITY           SKY/WX    TMP DP  RH WIND       PRES   REMARKS
TUCUMCARI      FAIR      80  59  48 W17G24    30.10R
CANNON AFB     NOT AVBL
CLOVIS AIRPORT FAIR      75  64  69 SW13      30.14S

$$
NMZ028-029-538-231700-
SOUTHEAST PLAINS

CITY           SKY/WX    TMP DP  RH WIND       PRES   REMARKS
ROSWELL        FAIR      80  62  54 SW10      30.12R
ARTESIA        FAIR      81  63  54 S8        30.13S
CARLSBAD       FAIR      80  63  55 SE5       30.11R
HOBBS          SUNNY     81  64  57 S12G21    30.16R


$$




USA.gov is the U.S. government's official web portal to all federal, state and local government web resources and services.